| time (UTC) | temp F | wind direction | speed MPH | gust MPH | rain 1hr in | rain 24hr in | rain mn in | humidity % | barometer mb |
| 20260505091106 | 52 | 206 | 3.0 | 7.0 | 0.00 | 0.00 | 0.00 | 76 | 1008.8 |
| 20260505090105 | 52 | 206 | 3.0 | 8.0 | 0.00 | 0.00 | 0.00 | 76 | 1008.8 |
| 20260505085053 | 51 | 160 | 3.0 | 8.0 | 0.00 | 0.00 | 0.00 | 76 | 1008.9 |
| 20260505084053 | 51 | 188 | 3.0 | 5.0 | 0.00 | 0.00 | 0.00 | 76 | 1009.2 |
| 20260505083054 | 51 | 198 | 3.0 | 5.0 | 0.00 | 0.00 | 0.00 | 76 | 1009.2 |
| 20260505082531 | 51 | 211 | 2.0 | 4.0 | 0.00 | 0.00 | 0.00 | 75 | 1009.2 |
| 20260505081536 | 52 | 213 | 2.0 | 5.0 | 0.00 | 0.00 | 0.00 | 75 | 1009.2 |
| 20260505080053 | 52 | 193 | 2.0 | 4.0 | 0.00 | 0.00 | 0.00 | 74 | 1009.2 |
| 20260505075053 | 52 | 203 | 2.0 | 4.0 | 0.00 | 0.00 | 0.00 | 74 | 1009.2 |
| 20260505074053 | 52 | 204 | 3.0 | 5.0 | 0.00 | 0.00 | 0.00 | 74 | 1009.2 |
| 20260505073055 | 52 | 177 | 3.0 | 5.0 | 0.00 | 0.00 | 0.00 | 74 | 1009.2 |
| 20260505072055 | 51 | 153 | 3.0 | 5.0 | 0.00 | 0.00 | 0.00 | 75 | 1009.3 |
| 20260505071052 | 51 | 186 | 3.0 | 5.0 | 0.00 | 0.00 | 0.00 | 75 | 1009.5 |
| 20260505070051 | 51 | 184 | 2.0 | 5.0 | 0.00 | 0.00 | 0.00 | 76 | 1009.5 |
| 20260505065052 | 51 | 198 | 2.0 | 5.0 | 0.00 | 0.00 | 0.00 | 75 | 1009.4 |
| 20260505064050 | 51 | 177 | 2.0 | 3.0 | 0.00 | 0.00 | 0.00 | 74 | 1009.6 |
| 20260505063532 | 52 | 188 | 2.0 | 3.0 | 0.00 | 0.00 | 0.00 | 73 | 1009.6 |
| 20260505062050 | 52 | 187 | 2.0 | 5.0 | 0.00 | 0.00 | 0.00 | 72 | 1009.7 |
| 20260505061047 | 53 | 247 | 2.0 | 5.0 | 0.00 | 0.00 | 0.00 | 71 | 1009.7 |
| 20260505060049 | 53 | 183 | 1.0 | 3.0 | 0.00 | 0.00 | 0.00 | 70 | 1009.7 |
| 20260505055048 | 53 | 183 | 1.0 | 3.0 | 0.00 | 0.00 | 0.00 | 69 | 1009.7 |
| 20260505054048 | 53 | 181 | 0.0 | 2.0 | 0.00 | 0.00 | 0.00 | 69 | 1009.7 |
| 20260505053048 | 54 | 181 | 0.0 | 1.0 | 0.00 | 0.00 | 0.00 | 68 | 1009.7 |
| 20260505052049 | 54 | 181 | 1.0 | 4.0 | 0.00 | 0.00 | 0.00 | 67 | 1009.7 |
| 20260505051035 | 55 | 181 | 2.0 | 5.0 | 0.00 | 0.00 | 0.00 | 67 | 1009.7 |
| 20260505041033 | 56 | 229 | 3.0 | 9.0 | 0.00 | 0.00 | 0.00 | 62 | 1009.7 |
| 20260505040031 | 57 | 202 | 3.0 | 6.0 | 0.00 | 0.00 | 0.00 | 62 | 1009.7 |
| 20260505035031 | 57 | 151 | 4.0 | 8.0 | 0.00 | 0.00 | 0.00 | 61 | 1009.6 |
| 20260505034030 | 57 | 200 | 4.0 | 9.0 | 0.00 | 0.00 | 0.00 | 60 | 1009.5 |
| 20260505033030 | 57 | 217 | 3.0 | 9.0 | 0.00 | 0.00 | 0.00 | 60 | 1009.5 |
| 20260505032032 | 58 | 196 | 4.0 | 15.0 | 0.00 | 0.00 | 0.00 | 59 | 1009.5 |
| 20260505031030 | 58 | 173 | 3.0 | 10.0 | 0.00 | 0.00 | 0.00 | 59 | 1009.4 |
| 20260505030031 | 58 | 195 | 3.0 | 11.0 | 0.00 | 0.00 | 0.00 | 58 | 1009.4 |
| 20260505025032 | 58 | 204 | 4.0 | 11.0 | 0.00 | 0.00 | 0.00 | 58 | 1009.3 |
| 20260505024026 | 58 | 216 | 4.0 | 7.0 | 0.00 | 0.00 | 0.00 | 58 | 1009.5 |
| 20260505023503 | 59 | 219 | 4.0 | 9.0 | 0.00 | 0.00 | 0.00 | 57 | 1009.5 |
| 20260505022517 | 59 | 227 | 4.0 | 8.0 | 0.00 | 0.00 | 0.00 | 56 | 1009.6 |
| 20260505021957 | 59 | 217 | 3.0 | 7.0 | 0.00 | 0.00 | 0.00 | 56 | 1009.6 |
| 20260505020024 | 60 | 181 | 4.0 | 8.0 | 0.00 | 0.00 | 0.00 | 55 | 1009.6 |
| 20260505015024 | 60 | 187 | 5.0 | 13.0 | 0.00 | 0.00 | 0.00 | 54 | 1009.3 |
| 20260505014023 | 60 | 223 | 5.0 | 13.0 | 0.00 | 0.00 | 0.00 | 54 | 1009.2 |
| 20260505013020 | 61 | 217 | 5.0 | 10.0 | 0.00 | 0.00 | 0.00 | 53 | 1008.9 |
| 20260505012020 | 61 | 106 | 4.0 | 12.0 | 0.00 | 0.00 | 0.00 | 52 | 1008.9 |
| 20260505011021 | 62 | 211 | 4.0 | 12.0 | 0.00 | 0.00 | 0.00 | 52 | 1008.7 |
| 20260505010018 | 62 | 210 | 4.0 | 13.0 | 0.00 | 0.00 | 0.00 | 51 | 1008.5 |
| 20260505005018 | 62 | 206 | 5.0 | 12.0 | 0.00 | 0.00 | 0.00 | 50 | 1008.5 |
| 20260505004018 | 63 | 212 | 6.0 | 15.0 | 0.00 | 0.00 | 0.00 | 49 | 1008.1 |
| 20260505003019 | 63 | 218 | 6.0 | 16.0 | 0.00 | 0.00 | 0.00 | 48 | 1007.6 |
| 20260505002019 | 64 | 227 | 5.0 | 15.0 | 0.00 | 0.00 | 0.00 | 48 | 1007.6 |
| 20260505001013 | 64 | 177 | 5.0 | 14.0 | 0.00 | 0.00 | 0.00 | 46 | 1007.5 |
| 20260505000013 | 65 | 225 | 5.0 | 12.0 | 0.00 | 0.00 | 0.00 | 45 | 1007.1 |
| 20260504235010 | 66 | 206 | 4.0 | 11.0 | 0.00 | 0.00 | 0.00 | 42 | 1007.1 |
| 20260504234010 | 67 | 229 | 2.0 | 5.0 | 0.00 | 0.00 | 0.00 | 40 | 1006.6 |
| 20260504233011 | 67 | 59 | 2.0 | 5.0 | 0.00 | 0.00 | 0.00 | 40 | 1006.5 |
| 20260504232012 | 67 | 210 | 2.0 | 7.0 | 0.00 | 0.00 | 0.00 | 38 | 1006.5 |
| 20260504231012 | 68 | 229 | 3.0 | 9.0 | 0.00 | 0.00 | 0.00 | 40 | 1006.4 |
| 20260504230011 | 68 | 213 | 2.0 | 16.0 | 0.00 | 0.00 | 0.00 | 38 | 1006.2 |
| 20260504225011 | 68 | 225 | 4.0 | 10.0 | 0.00 | 0.00 | 0.00 | 37 | 1006.2 |
| 20260504224010 | 68 | 208 | 3.0 | 9.0 | 0.00 | 0.00 | 0.00 | 37 | 1006.0 |
| 20260504223011 | 68 | 231 | 4.0 | 13.0 | 0.00 | 0.00 | 0.00 | 36 | 1006.1 |
| 20260504222442 | 69 | 215 | 3.0 | 9.0 | 0.00 | 0.00 | 0.00 | 38 | 1006.1 |
| 20260504221443 | 69 | 19 | 3.0 | 9.0 | 0.00 | 0.00 | 0.00 | 38 | 1006.1 |
| 20260504220005 | 69 | 301 | 3.0 | 10.0 | 0.00 | 0.00 | 0.00 | 37 | 1006.0 |
| 20260504215004 | 69 | 301 | 3.0 | 11.0 | 0.00 | 0.00 | 0.00 | 38 | 1006.0 |
| 20260504214004 | 70 | 301 | 3.0 | 8.0 | 0.00 | 0.00 | 0.00 | 36 | 1006.0 |
| 20260504213005 | 70 | 237 | 3.0 | 12.0 | 0.00 | 0.00 | 0.00 | 37 | 1006.1 |
| 20260504212004 | 70 | 243 | 4.0 | 9.0 | 0.00 | 0.00 | 0.00 | 35 | 1006.1 |
| 20260504211435 | 71 | 276 | 3.0 | 10.0 | 0.00 | 0.00 | 0.00 | 37 | 1006.2 |
| 20260504210445 | 71 | 237 | 3.0 | 7.0 | 0.00 | 0.00 | 0.00 | 37 | 1006.1 |
| 20260504204951 | 71 | 235 | 3.0 | 11.0 | 0.00 | 0.00 | 0.00 | 37 | 1006.1 |
| 20260504203952 | 71 | 251 | 4.0 | 13.0 | 0.00 | 0.00 | 0.00 | 37 | 1006.1 |
| 20260504202952 | 71 | 203 | 3.0 | 12.0 | 0.00 | 0.00 | 0.00 | 37 | 1006.1 |
| 20260504202432 | 71 | 191 | 4.0 | 11.0 | 0.00 | 0.00 | 0.00 | 35 | 1006.1 |
| 20260504200944 | 71 | 214 | 4.0 | 10.0 | 0.00 | 0.00 | 0.00 | 35 | 1006.0 |
| 20260504195943 | 70 | 301 | 4.0 | 13.0 | 0.00 | 0.00 | 0.00 | 37 | 1006.2 |
| 20260504194944 | 70 | 328 | 3.0 | 9.0 | 0.00 | 0.00 | 0.00 | 37 | 1006.2 |
| 20260504193944 | 69 | 301 | 4.0 | 14.0 | 0.00 | 0.00 | 0.00 | 36 | 1006.3 |
| 20260504193422 | 70 | 301 | 4.0 | 13.0 | 0.00 | 0.00 | 0.00 | 35 | 1006.1 |
| 20260504191941 | 70 | 301 | 6.0 | 15.0 | 0.00 | 0.00 | 0.00 | 34 | 1006.1 |
| 20260504190941 | 72 | 192 | 4.0 | 15.0 | 0.00 | 0.00 | 0.00 | 32 | 1006.5 |
| 20260504185940 | 72 | 245 | 5.0 | 14.0 | 0.00 | 0.00 | 0.00 | 34 | 1006.6 |
| 20260504184939 | 72 | 218 | 6.0 | 15.0 | 0.00 | 0.00 | 0.00 | 31 | 1006.6 |
| 20260504183939 | 72 | 183 | 6.0 | 15.0 | 0.00 | 0.00 | 0.00 | 32 | 1007.1 |
| 20260504182938 | 73 | 81 | 3.0 | 12.0 | 0.00 | 0.00 | 0.00 | 34 | 1006.9 |
| 20260504181938 | 73 | 232 | 4.0 | 11.0 | 0.00 | 0.00 | 0.00 | 33 | 1006.9 |
| 20260504180928 | 73 | 276 | 5.0 | 11.0 | 0.00 | 0.00 | 0.00 | 37 | 1007.1 |
| 20260504175928 | 72 | 245 | 5.0 | 11.0 | 0.00 | 0.00 | 0.00 | 33 | 1007.0 |
| 20260504174928 | 72 | 257 | 4.0 | 16.0 | 0.00 | 0.00 | 0.00 | 35 | 1007.0 |
| 20260504173927 | 72 | 181 | 5.0 | 17.0 | 0.00 | 0.00 | 0.00 | 34 | 1007.1 |
| 20260504172926 | 72 | 252 | 4.0 | 10.0 | 0.00 | 0.00 | 0.00 | 41 | 1007.1 |
| 20260504171923 | 71 | 194 | 3.0 | 11.0 | 0.00 | 0.00 | 0.00 | 33 | 1007.1 |
| 20260504170924 | 69 | 252 | 7.0 | 23.0 | 0.00 | 0.00 | 0.00 | 34 | 1007.4 |
| 20260504150914 | 67 | 278 | 3.0 | 7.0 | 0.00 | 0.00 | 0.00 | 42 | 1008.6 |
| 20260504140905 | 61 | 236 | 4.0 | 10.0 | 0.00 | 0.00 | 0.00 | 50 | 1009.2 |